Regional Weather Roundup
Issued by NWS Kansas City/Pleasant Hill, MO

Home | Current Version | Previous Version | Graphics & Text | Print | Product List | Glossary Off
Versions: 1 2 3 4 5 6 7 8 9 10 11 12 13 14 15 16 17 18 19 20 21 22 23 24 25 26 27 28 29 30 31 32 33 34 35 36 37 38 39 40 41 42 43 44 45 46 47 48 49 50

000
ASUS43 KEAX 261410
RWREAX

WEATHER ROUNDUP FOR EASTERN KANSAS AND NORTHWEST MISSOURI
NATIONAL WEATHER SERVICE KANSAS CITY/PLEASANT HILL MO
900 AM CDT TUE MAY 26 2015

KSZ040-057-103>105-MOZ028-029-037-043-261500-
...KANSAS CITY METROPOLITAN AREA...

CITY           SKY/WX    TMP DP  RH WIND       PRES   REMARKS
K.C. INTL      CLOUDY    63  61  93 S12       29.84F
K.C. DOWNTOWN  CLOUDY    66  60  81 SW10      29.85S
LEES SUMMIT    PTSUNNY   64  60  87 SW12      29.87R
OLATHE - IXD   CLOUDY    63  61  93 S15       29.88R
OLATHE - OJC   CLOUDY    63  61  93 SW12G17   29.86S
LAWRENCE       CLOUDY    65  61  87 S12       29.85S

$$

MOZ001>008-011>017-020>025-030>033-038>040-044>046-053-054-261500-
...NORTHERN AND CENTRAL MISSOURI...

CITY           SKY/WX    TMP DP  RH WIND       PRES   REMARKS
ST. JOSEPH     CLOUDY    64  60  87 S9        29.83R
MOSBY          PTSUNNY   63  59  88 SW8       29.85S
WARRENSBURG    PTSUNNY   63  59  88 S10       29.87S
WHITEMAN AFB   CLOUDY    64  61  91 W13       29.87R
CLINTON        CLOUDY    64  63  94 SW13      29.90R
SEDALIA        LGT RAIN  65  59  81 SW7       29.88R
WARSAW         NOT AVBL
CHILLICOTHE      N/A     65  62  90 SW7       29.83R
KIRKSVILLE     CLOUDY    67  61  81 W12       29.78S

$$

MOZ041-047>049-056>058-063>065-088>090-097-261500-
...EASTERN AND SOUTHERN MISSOURI...

CITY           SKY/WX    TMP DP  RH WIND       PRES   REMARKS
ST. LOUIS INTL PTSUNNY   72  64  78 SW14      29.88S
SPIRIT OF STL  PTSUNNY   70  64  81 SW16G23   29.86F
COLUMBIA       CLOUDY    67  61  81 SW18G26   29.85S
JEFFERSON CITY CLOUDY    68  61  78 SW15G22   29.87R
ROLLA          CLOUDY    66  61  84 SW14      29.89S
OSAGE BEACH    CLOUDY    66  59  77 SW10      29.89R
SPRINGFIELD    CLOUDY    66  58  75 SW12      29.94R
BRANSON        CLOUDY    63  59  88 CALM      29.97R
JOPLIN         PTSUNNY   63  59  87 SW10      29.95R
WEST PLAINS    CLOUDY    63  58  83 SW10      29.98R

$$

IAZ060-094-KSZ022-034>040-054-083-096-NEZ052-066-093-261500-
...KANSAS...SOUTHEAST NEBRASKA AND IOWA...

CITY           SKY/WX    TMP DP  RH WIND       PRES   REMARKS
TOPEKA         PTSUNNY   66  61  84 S12       29.85R
MANHATTAN      PTSUNNY   65  59  81 SW14      29.83R
EMPORIA        PTSUNNY   65  59  81 S16       29.88R
CHANUTE        MOSUNNY   66  61  84 SW12      29.91R
WICHITA        MOSUNNY   67  57  70 W13       29.91S
OMAHA          CLOUDY    63  60  90 S5        29.78S
LINCOLN        CLOUDY    64  58  80 CALM      29.79R
FALLS CITY     RAIN      61  58  90 S12       29.79S
LAMONI         CLOUDY    64  60  87 SW10      29.80R
DES MOINES     LGT RAIN  63  60  90 N9        29.75F FOG

$$




USA.gov is the U.S. government's official web portal to all federal, state and local government web resources and services.